Weather History for PHOG - November, 2011

Change the Weather History Date:

Wednesday, November 30, 2011

  Actual Average Record
Temperature  
Mean Temperature 76 °F 75 °F  
Max Temperature 82 °F 83 °F 89 °F (1977)
Min Temperature 70 °F 67 °F 59 °F (1953)
Degree Days  
Heating Degree Days 0 0  
Month to date heating degree days 0 0  
Since 1 July heating degree days 0 0  
Cooling Degree Days 11 10  
Month to date cooling degree days 272 331  
Year to date cooling degree days 3642 3707  
Growing Degree Days 20 (Base 50)    
Moisture  
Dew Point 62 °F    
Average Humidity 69    
Maximum Humidity 84    
Minimum Humidity 54    
Precipitation  
Precipitation 0.00 in 0.10 in 0.71 in (1954)
Month to date precipitation 0.07 2.20  
Year to date precipitation 10.60 14.48  
Snow  
Snow 0.00 in - - ()
Month to date snowfall 0.0  
Since 1 July snowfall 0.0  
Since 1 September snowfall 0.0  
Snow Depth 0.00 in    
Sea Level Pressure  
Sea Level Pressure 29.95 in    
Wind  
Wind Speed 9 mph (NE)    
Max Wind Speed 9 mph    
Max Gust Speed 13 mph    
Visibility 10 miles    
Events Rain    
T = Trace of Precipitation, MM = Missing Value Source: NWS Daily Summary

Daily Weather History Graph

Daily Weather History Graph

Search for Another Location

Airport or City:

Trip Planner

Search our weather history database for the weather conditions in past years. The results will help you decide how hot, cold, wet, or windy it might be!

Date:

Astronomy

Nov. 30, 2011 Rise Set
Actual Time 6:45 AM HST 5:43 PM HST
Civil Twilight 6:21 AM HST 6:07 PM HST
Nautical Twilight 5:54 AM HST 6:34 PM HST
Astronomical Twilight 5:27 AM HST 7:01 PM HST
Moon 11:31 AM HST (11/30) 11:24 PM HST (11/30)
Length of Visible Light 11h 45m
Length of Day
10h 58m
Waxing Crescent, 35% of the Moon is Illuminated
Nov 30
Waxing Crescent
Dec 1
First Quarter
Dec 10
Full
Dec 17
Last Quarter
Dec 24
New

Hourly Weather History & Observations

Time (HST) Temp. Heat Index Dew Point Humidity Pressure Visibility Wind Dir Wind Speed Gust Speed Precip Events Conditions
12:54 AM 64.0 °F - 59.0 °F 84% 29.96 in 10.0 mi ESE 4.6 mph - N/A   Clear
1:54 AM 62.1 °F - 57.0 °F 84% 29.96 in 10.0 mi SE 8.1 mph - N/A   Clear
2:54 AM 61.0 °F - 55.9 °F 83% 29.94 in 10.0 mi Calm Calm - N/A   Clear
3:54 AM 61.0 °F - 55.9 °F 83% 29.93 in 10.0 mi Calm Calm - N/A   Clear
4:54 AM 60.1 °F - 55.0 °F 83% 29.94 in 10.0 mi Calm Calm - N/A   Clear
5:54 AM 61.0 °F - 55.0 °F 81% 29.95 in 10.0 mi SE 4.6 mph - N/A   Clear
6:54 AM 61.0 °F - 55.0 °F 81% 29.98 in 10.0 mi SE 6.9 mph - N/A   Partly Cloudy
7:54 AM 66.9 °F - 61.0 °F 81% 29.99 in 10.0 mi Calm Calm - N/A   Partly Cloudy
8:54 AM 73.4 °F - 64.4 °F 73% 29.97 in 10.0 mi North 5.8 mph - N/A   Partly Cloudy
9:54 AM 77.0 °F - 66.2 °F 69% 29.97 in 10.0 mi NNE 13.8 mph - N/A   Partly Cloudy
10:50 AM 78.8 °F - 66.2 °F 65% 29.96 in 10.0 mi NNE 12.7 mph - N/A   Partly Cloudy
11:54 AM 78.8 °F - 66.2 °F 65% 29.93 in 10.0 mi NNE 13.8 mph 20.7 mph N/A   Scattered Clouds
12:54 PM 81.0 °F 81.9 °F 62.1 °F 52% 29.93 in 10.0 mi NNE 15.0 mph - N/A   Clear
1:00 PM 78.8 °F - 64.4 °F 61% 29.90 in 10.0 mi NNE 15.0 mph - N/A   Partly Cloudy
1:54 PM 81.0 °F 81.9 °F 62.1 °F 52% 29.91 in 10.0 mi NNE 15.0 mph - N/A   Unknown
2:54 PM 81.0 °F 81.9 °F 62.1 °F 52% 29.92 in 10.0 mi North 12.7 mph - N/A   Unknown
3:54 PM 77.0 °F - 64.4 °F 65% 29.91 in 10.0 mi NNE 12.7 mph - N/A   Scattered Clouds
4:54 PM 81.0 °F 81.9 °F 62.1 °F 52% 29.94 in 10.0 mi North 11.5 mph - N/A   Scattered Clouds
5:54 PM 81.0 °F 81.9 °F 62.1 °F 52% 29.95 in 10.0 mi NE 11.5 mph - N/A   Scattered Clouds
6:54 PM 75.2 °F - 66.2 °F 73% 29.97 in 10.0 mi NNE 13.8 mph - N/A   Scattered Clouds
7:54 PM 75.2 °F - 66.2 °F 73% 29.99 in 10.0 mi NNE 13.8 mph - N/A   Scattered Clouds
8:54 PM 81.0 °F 81.9 °F 62.1 °F 52% 29.99 in 10.0 mi NE 10.4 mph - N/A   Scattered Clouds
9:54 PM 71.1 °F - 64.0 °F 78% 29.99 in 10.0 mi ESE 6.9 mph - N/A Rain Light Rain
10:54 PM 70.0 °F - 64.0 °F 81% 29.99 in 10.0 mi ESE 6.9 mph - N/A   Scattered Clouds
11:54 PM 70.0 °F - 64.0 °F 81% 29.99 in 10.0 mi East 4.6 mph - N/A Rain Light Rain